| time (UTC) | temp F | wind direction | speed knots | gust knots | rain 1hr in | rain 24hr in | rain mn in | humidity % | barometer mb |
| 20260903151544 | 80 | 281 | 0.0 | 2.6 | 0.00 | 0.00 | 0.00 | 28 | 1004.1 |
| 20260903150030 | 78 | 351 | 0.0 | 3.5 | 0.00 | 0.00 | 0.00 | 30 | 1004.2 |
| 20260903144628 | 77 | 327 | 0.9 | 2.6 | 0.00 | 0.00 | 0.00 | 31 | 1004.4 |
| 20260903143025 | 75 | 22 | 1.7 | 6.1 | 0.00 | 0.00 | 0.00 | 34 | 1004.2 |
| 20260903141523 | 75 | 87 | 3.5 | 7.0 | 0.00 | 0.00 | 0.00 | 35 | 1004.4 |
| 20260903140022 | 73 | 292 | 0.0 | 7.8 | 0.00 | 0.00 | 0.00 | 36 | 1004.3 |
| 20260903134520 | 70 | 88 | 1.7 | 6.1 | 0.00 | 0.00 | 0.00 | 38 | 1004.4 |
| 20260903133018 | 65 | 82 | 2.6 | 4.3 | 0.00 | 0.00 | 0.00 | 49 | 1004.2 |
| 20260903131517 | 64 | 244 | 0.0 | 0.9 | 0.00 | 0.00 | 0.00 | 51 | 1004.0 |
| 20260903130014 | 64 | 167 | 0.0 | 0.0 | 0.00 | 0.00 | 0.00 | 49 | 1004.1 |
| 20260903124512 | 63 | 49 | 0.0 | 3.5 | 0.00 | 0.00 | 0.00 | 52 | 1004.0 |
| 20260903123011 | 63 | 103 | 1.7 | 5.2 | 0.00 | 0.00 | 0.00 | 53 | 1003.9 |
| 20260903121507 | 64 | 351 | 0.0 | 0.9 | 0.00 | 0.00 | 0.00 | 43 | 1003.5 |
| 20260903120004 | 65 | 351 | 0.0 | 0.0 | 0.00 | 0.00 | 0.00 | 41 | 1003.3 |
| 20260903114502 | 66 | 351 | 0.0 | 0.0 | 0.00 | 0.00 | 0.00 | 39 | 1003.3 |
| 20260903113001 | 66 | 351 | 0.0 | 0.0 | 0.00 | 0.00 | 0.00 | 41 | 1003.2 |
| 20260903111625 | 67 | 351 | 0.0 | 0.0 | 0.00 | 0.00 | 0.00 | 39 | 1003.1 |
| 20260903110110 | 67 | 351 | 0.9 | 2.6 | 0.00 | 0.00 | 0.00 | 41 | 1003.1 |
| 20260903104622 | 69 | 351 | 0.0 | 1.7 | 0.00 | 0.00 | 0.00 | 37 | 1003.1 |
| 20260903103051 | 70 | 7 | 2.6 | 3.5 | 0.00 | 0.00 | 0.00 | 36 | 1003.2 |
| 20260903101551 | 72 | 351 | 0.9 | 5.2 | 0.00 | 0.00 | 0.00 | 33 | 1003.2 |
| 20260903100050 | 72 | 356 | 0.9 | 4.3 | 0.00 | 0.00 | 0.00 | 34 | 1003.2 |
| 20260903094558 | 72 | 82 | 2.6 | 4.3 | 0.00 | 0.00 | 0.00 | 33 | 1003.3 |
| 20260903093049 | 73 | 215 | 0.9 | 5.2 | 0.00 | 0.00 | 0.00 | 33 | 1003.1 |
| 20260903091547 | 71 | 223 | 0.9 | 5.2 | 0.00 | 0.00 | 0.00 | 35 | 1003.0 |
| 20260903090050 | 70 | 234 | 3.5 | 7.0 | 0.00 | 0.00 | 0.00 | 36 | 1003.1 |
| 20260903084544 | 71 | 301 | 0.0 | 2.6 | 0.00 | 0.00 | 0.00 | 37 | 1003.1 |
| 20260903083044 | 71 | 123 | 0.0 | 3.5 | 0.00 | 0.00 | 0.00 | 39 | 1003.2 |
| 20260903081543 | 71 | 161 | 0.9 | 4.3 | 0.00 | 0.00 | 0.00 | 37 | 1003.0 |
| 20260903080041 | 72 | 180 | 0.0 | 4.3 | 0.00 | 0.00 | 0.00 | 37 | 1002.9 |
| 20260903074540 | 76 | 234 | 1.7 | 4.3 | 0.00 | 0.00 | 0.00 | 30 | 1003.1 |
| 20260903073045 | 75 | 284 | 0.9 | 4.3 | 0.00 | 0.00 | 0.00 | 31 | 1003.0 |
| 20260903071537 | 75 | 305 | 3.5 | 7.0 | 0.00 | 0.00 | 0.00 | 30 | 1003.1 |
| 20260903070039 | 73 | 315 | 1.7 | 4.3 | 0.00 | 0.00 | 0.00 | 31 | 1003.2 |
| 20260903064532 | 73 | 333 | 1.7 | 5.2 | 0.00 | 0.00 | 0.00 | 31 | 1003.2 |
| 20260903063030 | 72 | 15 | 1.7 | 5.2 | 0.00 | 0.00 | 0.00 | 32 | 1003.3 |
| 20260903061537 | 72 | 30 | 0.9 | 3.5 | 0.00 | 0.00 | 0.00 | 32 | 1003.2 |
| 20260903060029 | 72 | 238 | 0.0 | 1.7 | 0.00 | 0.00 | 0.00 | 31 | 1002.9 |
| 20260903054524 | 74 | 238 | 0.0 | 1.7 | 0.00 | 0.00 | 0.00 | 28 | 1002.8 |
| 20260903053023 | 75 | 236 | 0.0 | 2.6 | 0.00 | 0.00 | 0.00 | 28 | 1002.7 |
| 20260903051523 | 74 | 196 | 0.0 | 2.6 | 0.00 | 0.00 | 0.00 | 27 | 1002.7 |
| 20260903050023 | 73 | 33 | 0.0 | 0.0 | 0.00 | 0.00 | 0.00 | 28 | 1002.6 |
| 20260903044522 | 73 | 33 | 0.0 | 0.0 | 0.00 | 0.00 | 0.00 | 28 | 1002.5 |
| 20260903043021 | 73 | 33 | 0.0 | 0.0 | 0.00 | 0.00 | 0.00 | 27 | 1002.4 |
| 20260903041526 | 73 | 35 | 0.0 | 0.9 | 0.00 | 0.00 | 0.00 | 28 | 1002.3 |
| 20260903040021 | 75 | 197 | 0.0 | 0.0 | 0.00 | 0.00 | 0.00 | 27 | 1002.3 |
| 20260903034521 | 76 | 197 | 0.0 | 0.9 | 0.00 | 0.00 | 0.00 | 26 | 1002.3 |
| 20260903033019 | 78 | 197 | 0.0 | 0.9 | 0.00 | 0.00 | 0.00 | 24 | 1002.1 |
| 20260903031523 | 78 | 187 | 0.9 | 3.5 | 0.00 | 0.00 | 0.00 | 25 | 1002.0 |
| 20260903030029 | 79 | 211 | 0.9 | 3.5 | 0.00 | 0.00 | 0.00 | 24 | 1001.7 |
| 20260903024518 | 80 | 219 | 0.0 | 2.6 | 0.00 | 0.00 | 0.00 | 26 | 1001.4 |
| 20260903023018 | 82 | 219 | 0.0 | 6.1 | 0.00 | 0.00 | 0.00 | 26 | 1001.2 |
| 20260903021517 | 83 | 238 | 0.9 | 5.2 | 0.00 | 0.00 | 0.00 | 25 | 1000.9 |
| 20260903020017 | 84 | 49 | 1.7 | 3.5 | 0.00 | 0.00 | 0.00 | 22 | 1000.8 |
| 20260903014516 | 85 | 50 | 4.3 | 6.1 | 0.00 | 0.00 | 0.00 | 21 | 1000.6 |
| 20260903013027 | 85 | 45 | 3.5 | 6.1 | 0.00 | 0.00 | 0.00 | 21 | 1000.6 |
| 20260903011516 | 86 | 41 | 3.5 | 9.6 | 0.00 | 0.00 | 0.00 | 20 | 1000.7 |
| 20260903010027 | 87 | 57 | 5.2 | 8.7 | 0.00 | 0.00 | 0.00 | 19 | 1000.8 |
| 20260903004513 | 88 | 44 | 2.6 | 7.8 | 0.00 | 0.00 | 0.00 | 19 | 1000.9 |
| 20260903003015 | 89 | 70 | 3.5 | 8.7 | 0.00 | 0.00 | 0.00 | 18 | 1000.7 |
| 20260903001513 | 90 | 58 | 4.3 | 8.7 | 0.00 | 0.00 | 0.00 | 17 | 1000.8 |
| 20260903000012 | 91 | 63 | 5.2 | 8.7 | 0.00 | 0.00 | 0.00 | 17 | 1000.8 |
| 20260902234519 | 91 | 72 | 3.5 | 13.0 | 0.00 | 0.00 | 0.00 | 17 | 1000.8 |
| 20260902233010 | 91 | 90 | 3.5 | 13.0 | 0.00 | 0.00 | 0.00 | 17 | 1000.9 |
| 20260902231508 | 91 | 20 | 5.2 | 11.3 | 0.00 | 0.00 | 0.00 | 17 | 1001.2 |
| 20260902230006 | 91 | 57 | 6.1 | 9.6 | 0.00 | 0.00 | 0.00 | 17 | 1001.4 |
| 20260902224505 | 91 | 36 | 3.5 | 12.2 | 0.00 | 0.00 | 0.00 | 17 | 1001.5 |
| 20260902223002 | 90 | 33 | 3.5 | 9.6 | 0.00 | 0.00 | 0.00 | 18 | 1001.7 |
| 20260902221501 | 90 | 70 | 0.9 | 7.8 | 0.00 | 0.00 | 0.00 | 18 | 1001.7 |
| 20260902214602 | 89 | 130 | 6.1 | 13.0 | 0.00 | 0.00 | 0.00 | 18 | 1002.1 |
| 20260902213056 | 91 | 149 | 2.6 | 6.1 | 0.00 | 0.00 | 0.00 | 18 | 1002.3 |
| 20260902211556 | 90 | 132 | 3.5 | 11.3 | 0.00 | 0.00 | 0.00 | 19 | 1002.4 |
| 20260902210052 | 89 | 138 | 0.9 | 10.4 | 0.00 | 0.00 | 0.00 | 19 | 1002.7 |
| 20260902204551 | 90 | 144 | 7.0 | 12.2 | 0.00 | 0.00 | 0.00 | 20 | 1003.1 |
| 20260902203048 | 90 | 186 | 6.1 | 11.3 | 0.00 | 0.00 | 0.00 | 20 | 1003.2 |
| 20260902201554 | 89 | 138 | 3.5 | 8.7 | 0.00 | 0.00 | 0.00 | 20 | 1003.5 |
| 20260902200044 | 88 | 145 | 6.1 | 11.3 | 0.00 | 0.00 | 0.00 | 21 | 1003.6 |
| 20260902194543 | 88 | 167 | 8.7 | 12.2 | 0.00 | 0.00 | 0.00 | 21 | 1003.8 |
| 20260902193045 | 89 | 163 | 6.1 | 11.3 | 0.00 | 0.00 | 0.00 | 21 | 1004.1 |
| 20260902191540 | 89 | 138 | 1.7 | 7.8 | 0.00 | 0.00 | 0.00 | 20 | 1004.3 |
| 20260902190038 | 88 | 198 | 6.1 | 13.9 | 0.00 | 0.00 | 0.00 | 21 | 1004.7 |
| 20260902184535 | 88 | 300 | 4.3 | 7.8 | 0.00 | 0.00 | 0.00 | 20 | 1004.8 |
| 20260902183038 | 88 | 202 | 4.3 | 7.8 | 0.00 | 0.00 | 0.00 | 21 | 1005.0 |
| 20260902181531 | 87 | 211 | 4.3 | 8.7 | 0.00 | 0.00 | 0.00 | 21 | 1005.3 |
| 20260902180029 | 87 | 109 | 3.5 | 7.0 | 0.00 | 0.00 | 0.00 | 21 | 1005.5 |
| 20260902174526 | 86 | 255 | 2.6 | 9.6 | 0.00 | 0.00 | 0.00 | 23 | 1005.9 |
| 20260902173025 | 85 | 256 | 1.7 | 10.4 | 0.00 | 0.00 | 0.00 | 24 | 1006.2 |
| 20260902171523 | 85 | 244 | 7.0 | 14.8 | 0.00 | 0.00 | 0.00 | 23 | 1006.5 |
| 20260902170022 | 85 | 194 | 6.1 | 12.2 | 0.00 | 0.00 | 0.00 | 23 | 1006.8 |
| 20260902164518 | 84 | 307 | 1.7 | 9.6 | 0.00 | 0.00 | 0.00 | 24 | 1006.9 |
| 20260902163016 | 84 | 300 | 6.1 | 13.0 | 0.00 | 0.00 | 0.00 | 24 | 1007.0 |
| 20260902161512 | 83 | 320 | 2.6 | 13.0 | 0.00 | 0.00 | 0.00 | 25 | 1007.3 |
| 20260902160013 | 82 | 293 | 4.3 | 15.6 | 0.00 | 0.00 | 0.00 | 25 | 1007.5 |
| 20260902154507 | 82 | 236 | 2.6 | 7.0 | 0.00 | 0.00 | 0.00 | 26 | 1007.6 |
| 20260902153014 | 80 | 223 | 2.6 | 12.2 | 0.00 | 0.00 | 0.00 | 27 | 1007.6 |